Location: Cuzcurrita-R�o Tir�n
(42.5415°N, 2.9642°W)
Time: 21:18:29
(UTC+00:00)

CSL-04 Rocket - Pass Details

Date: 17 January 2021
Orbit: 806 x 860 km, 98.9° (Epoch: 02 March)

Event Time Altitude Azimuth Distance (km) Brightness Sun altitude
Rises 19:21:21 0° 166° (SSE) 3,333 6.7 -24.4°
Reaches altitude 10° 19:23:40 10° 167° (SSE) 2,412 6.0 -24.9°
Maximum altitude 19:29:02 83° 256° (WSW) 843 3.6 -25.9°
Drops below altitude 10° 19:34:30 10° 344° (NNW) 2,465 6.2 -26.9°
Sets 19:36:54 0° 346° (NNW) 3,412 7.0 -27.3°
